Time,TemperatureF,DewpointF,PressureIn,WindDirection,WindDirectionDegrees,WindSpeedMPH,WindSpeedGustMPH,Humidity,HourlyPrecipIn,Conditions,Clouds,dailyrainin,SoftwareType,DateUTC
2013-09-07 00:01:00,54.0,54.0,29.81,ENE,67,1.0,3.0,99,0.00,,,0.00,Rainwise IP-100,2013-09-07 04:01:00,
2013-09-07 00:06:00,54.1,54.0,29.81,SE,135,0.0,3.0,100,0.00,,,0.00,Rainwise IP-100,2013-09-07 04:06:00,
2013-09-07 00:10:00,54.6,54.0,29.81,South,180,3.0,4.0,99,0.00,,,0.00,Rainwise IP-100,2013-09-07 04:10:00,
2013-09-07 00:11:00,54.4,54.0,29.81,SSE,157,2.0,4.0,100,0.00,,,0.00,Rainwise IP-100,2013-09-07 04:11:00,
2013-09-07 00:17:00,54.5,53.0,29.80,SSE,157,0.0,3.0,96,0.00,,,0.00,Rainwise IP-100,2013-09-07 04:17:00,
2013-09-07 00:22:00,54.6,53.0,29.81,ESE,112,2.0,4.0,96,0.00,,,0.00,Rainwise IP-100,2013-09-07 04:22:00,
2013-09-07 00:27:00,54.7,53.0,29.81,SE,135,1.0,4.0,96,0.00,,,0.00,Rainwise IP-100,2013-09-07 04:27:00,
2013-09-07 00:32:00,54.7,53.0,29.80,SE,135,0.0,2.0,96,0.00,,,0.00,Rainwise IP-100,2013-09-07 04:32:00,
2013-09-07 00:37:00,54.7,53.0,29.80,SE,135,0.0,3.0,94,0.00,,,0.00,Rainwise IP-100,2013-09-07 04:37:00,
2013-09-07 00:42:00,54.7,53.0,29.80,SE,135,1.0,3.0,96,0.00,,,0.00,Rainwise IP-100,2013-09-07 04:42:00,
2013-09-07 00:47:00,54.7,54.0,29.80,SE,135,0.0,2.0,97,0.00,,,0.00,Rainwise IP-100,2013-09-07 04:47:00,
2013-09-07 00:52:00,54.8,54.0,29.80,SE,135,0.0,2.0,99,0.00,,,0.00,Rainwise IP-100,2013-09-07 04:52:00,
2013-09-07 00:58:00,54.8,54.0,29.80,East,90,1.0,3.0,98,0.00,,,0.00,Rainwise IP-100,2013-09-07 04:58:00,
2013-09-07 01:03:00,54.7,54.0,29.80,East,90,0.0,2.0,100,0.00,,,0.00,Rainwise IP-100,2013-09-07 05:03:00,
2013-09-07 01:08:00,54.6,54.0,29.80,ESE,112,1.0,2.0,100,0.00,,,0.00,Rainwise IP-100,2013-09-07 05:08:00,
2013-09-07 01:13:00,54.6,54.0,29.80,SSE,157,4.0,4.0,99,0.00,,,0.00,Rainwise IP-100,2013-09-07 05:13:00,
2013-09-07 01:18:00,54.7,53.0,29.80,SSE,157,4.0,4.0,96,0.00,,,0.00,Rainwise IP-100,2013-09-07 05:18:00,
2013-09-07 01:23:00,54.9,54.0,29.79,South,180,3.0,4.0,95,0.00,,,0.00,Rainwise IP-100,2013-09-07 05:23:00,
2013-09-07 01:28:00,55.1,53.0,29.80,SSE,157,2.0,4.0,94,0.00,,,0.00,Rainwise IP-100,2013-09-07 05:28:00,
2013-09-07 01:33:00,55.1,53.0,29.79,SSE,157,1.0,3.0,94,0.00,,,0.00,Rainwise IP-100,2013-09-07 05:33:00,
2013-09-07 01:39:00,55.1,53.0,29.79,SSE,157,2.0,4.0,94,0.00,,,0.00,Rainwise IP-100,2013-09-07 05:39:00,
2013-09-07 01:44:00,55.1,53.0,29.79,SSE,157,3.0,4.0,93,0.00,,,0.00,Rainwise IP-100,2013-09-07 05:44:00,
2013-09-07 01:49:00,55.1,53.0,29.79,SE,135,2.0,4.0,93,0.00,,,0.00,Rainwise IP-100,2013-09-07 05:49:00,
2013-09-07 01:54:00,54.9,53.0,29.79,SSW,202,0.0,2.0,93,0.00,,,0.00,Rainwise IP-100,2013-09-07 05:54:00,
2013-09-07 01:59:00,54.7,53.0,29.79,SSE,157,0.0,3.0,94,0.00,,,0.00,Rainwise IP-100,2013-09-07 05:59:00,
2013-09-07 02:04:00,54.7,53.0,29.80,SSE,157,2.0,4.0,93,0.00,,,0.00,Rainwise IP-100,2013-09-07 06:04:00,
2013-09-07 02:09:00,54.5,53.0,29.80,SSE,157,0.0,4.0,94,0.00,,,0.00,Rainwise IP-100,2013-09-07 06:09:00,
2013-09-07 02:15:00,54.3,52.0,29.80,SSW,202,0.0,4.0,94,0.00,,,0.00,Rainwise IP-100,2013-09-07 06:15:00,
2013-09-07 02:20:00,54.1,52.0,29.80,South,180,2.0,4.0,94,0.00,,,0.00,Rainwise IP-100,2013-09-07 06:20:00,
2013-09-07 02:25:00,54.1,52.0,29.80,South,180,1.0,3.0,94,0.00,,,0.00,Rainwise IP-100,2013-09-07 06:25:00,
2013-09-07 02:30:00,53.9,53.0,29.79,South,180,0.0,3.0,95,0.00,,,0.00,Rainwise IP-100,2013-09-07 06:30:00,
2013-09-07 02:35:00,53.8,52.0,29.80,South,180,0.0,2.0,96,0.00,,,0.00,Rainwise IP-100,2013-09-07 06:35:00,
2013-09-07 02:40:00,53.6,53.0,29.80,SSW,202,1.0,3.0,98,0.00,,,0.00,Rainwise IP-100,2013-09-07 06:40:00,
2013-09-07 02:45:00,53.1,52.0,29.79,SSW,202,1.0,3.0,97,0.00,,,0.00,Rainwise IP-100,2013-09-07 06:45:00,
2013-09-07 02:50:00,52.9,52.0,29.79,South,180,2.0,3.0,98,0.00,,,0.00,Rainwise IP-100,2013-09-07 06:50:00,
2013-09-07 02:56:00,52.9,52.0,29.79,SSW,202,1.0,4.0,97,0.00,,,0.00,Rainwise IP-100,2013-09-07 06:56:00,
2013-09-07 03:01:00,52.9,52.0,29.79,SSE,157,3.0,3.0,98,0.00,,,0.00,Rainwise IP-100,2013-09-07 07:01:00,
2013-09-07 03:06:00,52.9,52.0,29.79,SSE,157,2.0,4.0,98,0.00,,,0.00,Rainwise IP-100,2013-09-07 07:06:00,
2013-09-07 03:11:00,52.8,52.0,29.78,SSE,157,2.0,3.0,98,0.00,,,0.00,Rainwise IP-100,2013-09-07 07:11:00,
2013-09-07 03:16:00,52.7,52.0,29.78,SSW,202,0.0,2.0,98,0.00,,,0.00,Rainwise IP-100,2013-09-07 07:16:00,
2013-09-07 03:21:00,52.6,52.0,29.78,South,180,2.0,6.0,98,0.00,,,0.00,Rainwise IP-100,2013-09-07 07:21:00,
2013-09-07 03:26:00,52.6,52.0,29.78,South,180,1.0,3.0,98,0.00,,,0.00,Rainwise IP-100,2013-09-07 07:26:00,
2013-09-07 03:32:00,52.6,53.0,29.78,SE,135,2.0,3.0,99,0.00,,,0.00,Rainwise IP-100,2013-09-07 07:32:00,
2013-09-07 03:37:00,52.8,53.0,29.78,SE,135,0.0,4.0,100,0.00,,,0.00,Rainwise IP-100,2013-09-07 07:37:00,
2013-09-07 03:42:00,52.8,53.0,29.78,SSE,157,3.0,4.0,99,0.00,,,0.00,Rainwise IP-100,2013-09-07 07:42:00,
2013-09-07 03:47:00,52.8,53.0,29.78,SSE,157,1.0,4.0,100,0.00,,,0.00,Rainwise IP-100,2013-09-07 07:47:00,
2013-09-07 03:52:00,52.6,53.0,29.78,South,180,2.0,3.0,99,0.00,,,0.00,Rainwise IP-100,2013-09-07 07:52:00,
2013-09-07 03:57:00,52.5,53.0,29.78,SE,135,2.0,3.0,99,0.00,,,0.00,Rainwise IP-100,2013-09-07 07:57:00,
2013-09-07 04:02:00,52.4,52.0,29.78,SE,135,2.0,3.0,100,0.00,,,0.00,Rainwise IP-100,2013-09-07 08:02:00,
2013-09-07 04:07:00,52.3,52.0,29.78,SSE,157,3.0,3.0,100,0.00,,,0.00,Rainwise IP-100,2013-09-07 08:07:00,
2013-09-07 04:13:00,52.2,52.0,29.78,SSE,157,0.0,2.0,100,0.00,,,0.00,Rainwise IP-100,2013-09-07 08:13:00,
2013-09-07 04:18:00,51.9,52.0,29.78,SSE,157,0.0,2.0,100,0.00,,,0.00,Rainwise IP-100,2013-09-07 08:18:00,
2013-09-07 04:23:00,51.8,52.0,29.78,SSE,157,1.0,1.0,100,0.00,,,0.00,Rainwise IP-100,2013-09-07 08:23:00,
2013-09-07 04:28:00,51.6,52.0,29.79,SSW,202,0.0,2.0,100,0.00,,,0.00,Rainwise IP-100,2013-09-07 08:28:00,
2013-09-07 04:33:00,51.5,52.0,29.79,SSW,202,0.0,1.0,100,0.00,,,0.00,Rainwise IP-100,2013-09-07 08:33:00,
2013-09-07 04:38:00,51.6,52.0,29.79,SSW,202,0.0,2.0,100,0.00,,,0.00,Rainwise IP-100,2013-09-07 08:38:00,
2013-09-07 04:43:00,52.0,52.0,29.79,SSE,157,3.0,4.0,100,0.00,,,0.00,Rainwise IP-100,2013-09-07 08:43:00,
2013-09-07 04:49:00,52.3,52.0,29.78,SSE,157,2.0,5.0,100,0.00,,,0.00,Rainwise IP-100,2013-09-07 08:49:00,
2013-09-07 04:54:00,52.5,53.0,29.78,SSE,157,1.0,3.0,100,0.00,,,0.00,Rainwise IP-100,2013-09-07 08:54:00,
2013-09-07 04:59:00,52.7,53.0,29.78,SSE,157,0.0,4.0,100,0.00,,,0.00,Rainwise IP-100,2013-09-07 08:59:00,
2013-09-07 05:04:00,52.8,53.0,29.78,SE,135,0.0,5.0,100,0.00,,,0.00,Rainwise IP-100,2013-09-07 09:04:00,
2013-09-07 05:09:00,52.8,53.0,29.78,SSE,157,0.0,4.0,100,0.00,,,0.00,Rainwise IP-100,2013-09-07 09:09:00,
2013-09-07 05:14:00,52.9,52.0,29.78,SSW,202,0.0,3.0,98,0.00,,,0.00,Rainwise IP-100,2013-09-07 09:14:00,
2013-09-07 05:19:00,52.9,52.0,29.78,SE,135,1.0,3.0,98,0.00,,,0.00,Rainwise IP-100,2013-09-07 09:19:00,
2013-09-07 05:24:00,53.3,52.0,29.78,South,180,0.0,3.0,97,0.00,,,0.00,Rainwise IP-100,2013-09-07 09:24:00,
2013-09-07 05:30:00,53.3,52.0,29.78,SSE,157,1.0,3.0,97,0.00,,,0.00,Rainwise IP-100,2013-09-07 09:30:00,
2013-09-07 05:35:00,53.3,51.0,29.78,SSE,157,3.0,3.0,96,0.00,,,0.00,Rainwise IP-100,2013-09-07 09:35:00,
2013-09-07 05:40:00,53.3,52.0,29.78,SSE,157,1.0,5.0,97,0.00,,,0.00,Rainwise IP-100,2013-09-07 09:40:00,
2013-09-07 05:45:00,53.3,52.0,29.77,SSE,157,3.0,4.0,98,0.00,,,0.00,Rainwise IP-100,2013-09-07 09:45:00,
2013-09-07 05:50:00,53.2,52.0,29.78,SSE,157,1.0,5.0,98,0.00,,,0.00,Rainwise IP-100,2013-09-07 09:50:00,
2013-09-07 05:55:00,53.1,52.0,29.78,SSE,157,3.0,4.0,98,0.00,,,0.00,Rainwise IP-100,2013-09-07 09:55:00,
2013-09-07 06:00:00,52.8,53.0,29.78,SSE,157,3.0,4.0,99,0.00,,,0.00,Rainwise IP-100,2013-09-07 10:00:00,
2013-09-07 06:06:00,52.8,52.0,29.78,SSE,157,2.0,4.0,98,0.00,,,0.00,Rainwise IP-100,2013-09-07 10:06:00,
2013-09-07 06:11:00,52.8,53.0,29.78,SSE,157,2.0,6.0,100,0.00,,,0.00,Rainwise IP-100,2013-09-07 10:11:00,
2013-09-07 06:16:00,52.8,53.0,29.77,SSE,157,0.0,4.0,99,0.00,,,0.00,Rainwise IP-100,2013-09-07 10:16:00,
2013-09-07 06:21:00,52.9,52.0,29.78,SE,135,1.0,6.0,98,0.00,,,0.00,Rainwise IP-100,2013-09-07 10:21:00,
2013-09-07 06:26:00,52.9,53.0,29.78,SSE,157,2.0,4.0,99,0.00,,,0.00,Rainwise IP-100,2013-09-07 10:26:00,
2013-09-07 06:31:00,53.1,53.0,29.78,SSE,157,3.0,4.0,99,0.00,,,0.00,Rainwise IP-100,2013-09-07 10:31:00,
2013-09-07 06:36:00,53.1,52.0,29.77,SSE,157,1.0,4.0,98,0.00,,,0.00,Rainwise IP-100,2013-09-07 10:36:00,
2013-09-07 06:41:00,53.2,53.0,29.77,SSE,157,2.0,4.0,100,0.00,,,0.00,Rainwise IP-100,2013-09-07 10:41:00,
2013-09-07 06:47:00,53.3,53.0,29.77,SE,135,1.0,3.0,100,0.00,,,0.00,Rainwise IP-100,2013-09-07 10:47:00,
2013-09-07 06:52:00,53.3,53.0,29.77,SE,135,0.0,4.0,100,0.00,,,0.00,Rainwise IP-100,2013-09-07 10:52:00,
2013-09-07 06:57:00,53.3,53.0,29.77,SSE,157,0.0,3.0,100,0.00,,,0.00,Rainwise IP-100,2013-09-07 10:57:00,
2013-09-07 07:02:00,53.3,53.0,29.78,SSE,157,2.0,3.0,100,0.00,,,0.00,Rainwise IP-100,2013-09-07 11:02:00,
2013-09-07 07:07:00,53.4,53.0,29.78,SSE,157,0.0,4.0,100,0.00,,,0.00,Rainwise IP-100,2013-09-07 11:07:00,
2013-09-07 07:12:00,53.5,53.0,29.78,SE,135,0.0,3.0,100,0.00,,,0.00,Rainwise IP-100,2013-09-07 11:12:00,
2013-09-07 07:17:00,53.6,53.0,29.78,SSE,157,2.0,5.0,99,0.00,,,0.00,Rainwise IP-100,2013-09-07 11:17:00,
2013-09-07 07:23:00,53.7,53.0,29.78,SE,135,0.0,3.0,100,0.00,,,0.00,Rainwise IP-100,2013-09-07 11:23:00,
2013-09-07 07:28:00,53.8,53.0,29.77,SE,135,1.0,4.0,99,0.00,,,0.00,Rainwise IP-100,2013-09-07 11:28:00,
2013-09-07 07:33:00,53.9,54.0,29.77,SE,135,1.0,4.0,99,0.00,,,0.00,Rainwise IP-100,2013-09-07 11:33:00,
2013-09-07 07:38:00,53.8,53.0,29.77,South,180,2.0,5.0,99,0.00,,,0.00,Rainwise IP-100,2013-09-07 11:38:00,
2013-09-07 07:43:00,53.8,53.0,29.78,SSE,157,3.0,5.0,99,0.00,,,0.00,Rainwise IP-100,2013-09-07 11:43:00,
2013-09-07 07:48:00,53.8,53.0,29.77,SE,135,1.0,6.0,99,0.00,,,0.00,Rainwise IP-100,2013-09-07 11:48:00,
2013-09-07 07:53:00,53.9,54.0,29.77,SE,135,2.0,4.0,100,0.00,,,0.00,Rainwise IP-100,2013-09-07 11:53:00,
2013-09-07 07:58:00,54.0,54.0,29.77,SSE,157,3.0,5.0,99,0.00,,,0.00,Rainwise IP-100,2013-09-07 11:58:00,
2013-09-07 08:04:00,54.3,53.0,29.77,SSE,157,6.0,6.0,98,0.00,,,0.00,Rainwise IP-100,2013-09-07 12:04:00,
2013-09-07 08:09:00,54.7,54.0,29.77,SSW,202,0.0,6.0,98,0.00,,,0.00,Rainwise IP-100,2013-09-07 12:09:00,
2013-09-07 08:14:00,55.0,54.0,29.77,SSE,157,4.0,6.0,98,0.00,,,0.00,Rainwise IP-100,2013-09-07 12:14:00,
2013-09-07 08:19:00,55.3,54.0,29.77,SE,135,3.0,6.0,96,0.00,,,0.00,Rainwise IP-100,2013-09-07 12:19:00,
2013-09-07 08:24:00,55.7,53.0,29.77,SSE,157,3.0,6.0,92,0.00,,,0.00,Rainwise IP-100,2013-09-07 12:24:00,
2013-09-07 08:29:00,55.9,54.0,29.77,SSE,157,4.0,5.0,93,0.00,,,0.00,Rainwise IP-100,2013-09-07 12:29:00,
2013-09-07 08:34:00,55.9,54.0,29.76,NW,315,1.0,6.0,93,0.00,,,0.00,Rainwise IP-100,2013-09-07 12:34:00,
2013-09-07 08:40:00,56.3,54.0,29.76,SSW,202,2.0,6.0,93,0.00,,,0.00,Rainwise IP-100,2013-09-07 12:40:00,
2013-09-07 08:45:00,56.4,55.0,29.76,SSE,157,1.0,5.0,96,0.00,,,0.00,Rainwise IP-100,2013-09-07 12:45:00,
2013-09-07 08:50:00,56.6,55.0,29.76,ESE,112,4.0,6.0,95,0.00,,,0.00,Rainwise IP-100,2013-09-07 12:50:00,
2013-09-07 08:55:00,56.6,54.0,29.77,WSW,247,2.0,6.0,93,0.00,,,0.00,Rainwise IP-100,2013-09-07 12:55:00,
2013-09-07 09:00:00,56.7,55.0,29.76,West,270,3.0,4.0,95,0.00,,,0.00,Rainwise IP-100,2013-09-07 13:00:00,
2013-09-07 09:05:00,56.7,54.0,29.76,South,180,5.0,5.0,91,0.00,,,0.00,Rainwise IP-100,2013-09-07 13:05:00,
2013-09-07 09:10:00,56.7,54.0,29.76,SE,135,1.0,6.0,93,0.00,,,0.00,Rainwise IP-100,2013-09-07 13:10:00,
2013-09-07 09:15:00,56.7,54.0,29.76,SSE,157,2.0,5.0,93,0.00,,,0.00,Rainwise IP-100,2013-09-07 13:15:00,
2013-09-07 09:21:00,56.8,54.0,29.76,South,180,3.0,6.0,93,0.00,,,0.00,Rainwise IP-100,2013-09-07 13:21:00,
2013-09-07 09:26:00,57.3,54.0,29.77,SSE,157,3.0,6.0,91,0.00,,,0.00,Rainwise IP-100,2013-09-07 13:26:00,
2013-09-07 09:31:00,57.8,54.0,29.77,SSE,157,2.0,6.0,90,0.00,,,0.00,Rainwise IP-100,2013-09-07 13:31:00,
2013-09-07 09:36:00,58.3,54.0,29.77,WNW,292,0.0,6.0,88,0.00,,,0.00,Rainwise IP-100,2013-09-07 13:36:00,
2013-09-07 09:41:00,58.7,56.0,29.76,South,180,5.0,6.0,92,0.00,,,0.00,Rainwise IP-100,2013-09-07 13:41:00,
2013-09-07 09:46:00,59.1,56.0,29.76,SE,135,2.0,6.0,90,0.00,,,0.00,Rainwise IP-100,2013-09-07 13:46:00,
2013-09-07 09:51:00,59.5,56.0,29.76,SE,135,3.0,6.0,89,0.00,,,0.00,Rainwise IP-100,2013-09-07 13:51:00,
2013-09-07 09:57:00,59.9,56.0,29.76,SE,135,1.0,5.0,89,0.00,,,0.00,Rainwise IP-100,2013-09-07 13:57:00,
2013-09-07 10:02:00,60.3,56.0,29.76,SSE,157,5.0,6.0,89,0.00,,,0.00,Rainwise IP-100,2013-09-07 14:02:00,
2013-09-07 10:07:00,60.3,56.0,29.76,SSE,157,3.0,7.0,88,0.00,,,0.00,Rainwise IP-100,2013-09-07 14:07:00,
2013-09-07 10:12:00,60.2,56.0,29.76,SE,135,2.0,6.0,87,0.00,,,0.00,Rainwise IP-100,2013-09-07 14:12:00,
2013-09-07 10:17:00,60.1,56.0,29.76,SSE,157,1.0,5.0,87,0.00,,,0.00,Rainwise IP-100,2013-09-07 14:17:00,
2013-09-07 10:22:00,60.2,56.0,29.76,SE,135,2.0,4.0,87,0.00,,,0.00,Rainwise IP-100,2013-09-07 14:22:00,
2013-09-07 10:27:00,60.4,57.0,29.75,SSE,157,2.0,5.0,88,0.00,,,0.00,Rainwise IP-100,2013-09-07 14:27:00,
2013-09-07 10:32:00,60.5,56.0,29.75,SSE,157,0.0,7.0,87,0.00,,,0.00,Rainwise IP-100,2013-09-07 14:32:00,
2013-09-07 10:38:00,60.6,56.0,29.75,SE,135,0.0,6.0,87,0.00,,,0.00,Rainwise IP-100,2013-09-07 14:38:00,
2013-09-07 10:43:00,60.8,56.0,29.75,SSE,157,3.0,6.0,87,0.00,,,0.00,Rainwise IP-100,2013-09-07 14:43:00,
2013-09-07 10:48:00,61.0,56.0,29.75,SSE,157,3.0,6.0,86,0.00,,,0.00,Rainwise IP-100,2013-09-07 14:48:00,
2013-09-07 10:53:00,61.3,57.0,29.75,South,180,3.0,6.0,87,0.00,,,0.00,Rainwise IP-100,2013-09-07 14:53:00,
2013-09-07 10:58:00,61.5,57.0,29.75,SE,135,2.0,6.0,85,0.00,,,0.00,Rainwise IP-100,2013-09-07 14:58:00,
2013-09-07 11:03:00,61.5,56.0,29.75,South,180,3.0,6.0,84,0.00,,,0.00,Rainwise IP-100,2013-09-07 15:03:00,
2013-09-07 11:08:00,61.3,56.0,29.76,SE,135,5.0,7.0,84,0.00,,,0.00,Rainwise IP-100,2013-09-07 15:08:00,
2013-09-07 11:14:00,61.1,56.0,29.76,South,180,4.0,6.0,84,0.00,,,0.00,Rainwise IP-100,2013-09-07 15:14:00,
2013-09-07 11:19:00,60.8,56.0,29.76,SE,135,4.0,6.0,84,0.00,,,0.00,Rainwise IP-100,2013-09-07 15:19:00,
2013-09-07 11:24:00,60.6,56.0,29.75,SSE,157,3.0,6.0,87,0.00,,,0.00,Rainwise IP-100,2013-09-07 15:24:00,
2013-09-07 11:29:00,60.4,56.0,29.75,SSE,157,2.0,9.0,87,0.00,,,0.00,Rainwise IP-100,2013-09-07 15:29:00,
2013-09-07 11:34:00,60.5,57.0,29.75,SSE,157,6.0,6.0,89,0.00,,,0.00,Rainwise IP-100,2013-09-07 15:34:00,
2013-09-07 11:39:00,60.4,57.0,29.74,SSE,157,2.0,6.0,88,0.00,,,0.00,Rainwise IP-100,2013-09-07 15:39:00,
2013-09-07 11:44:00,60.4,56.0,29.74,SSE,157,1.0,6.0,87,0.00,,,0.00,Rainwise IP-100,2013-09-07 15:44:00,
2013-09-07 11:49:00,60.3,56.0,29.74,SSE,157,1.0,6.0,86,0.00,,,0.00,Rainwise IP-100,2013-09-07 15:49:00,
2013-09-07 11:55:00,60.3,56.0,29.74,SSE,157,2.0,7.0,87,0.00,,,0.00,Rainwise IP-100,2013-09-07 15:55:00,
2013-09-07 12:00:00,60.8,56.0,29.73,SSE,157,1.0,5.0,86,0.00,,,0.00,Rainwise IP-100,2013-09-07 16:00:00,
2013-09-07 12:05:00,61.3,55.0,29.73,West,270,0.0,7.0,82,0.00,,,0.00,Rainwise IP-100,2013-09-07 16:05:00,
2013-09-07 12:10:00,61.8,56.0,29.73,SSE,157,0.0,5.0,84,0.00,,,0.00,Rainwise IP-100,2013-09-07 16:10:00,
2013-09-07 12:15:00,62.2,57.0,29.73,SSE,157,2.0,7.0,84,0.00,,,0.00,Rainwise IP-100,2013-09-07 16:15:00,
2013-09-07 12:20:00,62.4,57.0,29.73,SE,135,2.0,6.0,83,0.00,,,0.00,Rainwise IP-100,2013-09-07 16:20:00,
2013-09-07 12:25:00,62.4,57.0,29.73,South,180,4.0,7.0,83,0.00,,,0.00,Rainwise IP-100,2013-09-07 16:25:00,
2013-09-07 12:31:00,62.5,57.0,29.72,SSE,157,2.0,5.0,83,0.00,,,0.00,Rainwise IP-100,2013-09-07 16:31:00,
2013-09-07 12:36:00,62.6,57.0,29.72,SSE,157,1.0,6.0,83,0.00,,,0.00,Rainwise IP-100,2013-09-07 16:36:00,
2013-09-07 12:41:00,62.6,57.0,29.72,SE,135,3.0,3.0,84,0.00,,,0.00,Rainwise IP-100,2013-09-07 16:41:00,
2013-09-07 12:46:00,62.9,58.0,29.72,SE,135,3.0,7.0,84,0.00,,,0.00,Rainwise IP-100,2013-09-07 16:46:00,
2013-09-07 12:51:00,62.9,58.0,29.71,SSE,157,1.0,6.0,84,0.00,,,0.00,Rainwise IP-100,2013-09-07 16:51:00,
2013-09-07 12:56:00,63.2,57.0,29.71,South,180,0.0,5.0,82,0.00,,,0.00,Rainwise IP-100,2013-09-07 16:56:00,
2013-09-07 13:01:00,63.5,59.0,29.71,SE,135,2.0,6.0,85,0.00,,,0.00,Rainwise IP-100,2013-09-07 17:01:00,
2013-09-07 13:06:00,63.9,59.0,29.71,SSE,157,1.0,6.0,83,0.00,,,0.00,Rainwise IP-100,2013-09-07 17:06:00,
2013-09-07 13:12:00,64.2,58.0,29.70,SSE,157,5.0,5.0,81,0.00,,,0.00,Rainwise IP-100,2013-09-07 17:12:00,
2013-09-07 13:17:00,64.2,58.0,29.70,SE,135,2.0,6.0,81,0.00,,,0.00,Rainwise IP-100,2013-09-07 17:17:00,
2013-09-07 13:22:00,64.1,59.0,29.71,SE,135,1.0,5.0,85,0.00,,,0.00,Rainwise IP-100,2013-09-07 17:22:00,
2013-09-07 13:27:00,64.1,59.0,29.70,SE,135,1.0,4.0,85,0.00,,,0.00,Rainwise IP-100,2013-09-07 17:27:00,
2013-09-07 13:32:00,64.1,59.0,29.70,North,360,1.0,5.0,83,0.00,,,0.00,Rainwise IP-100,2013-09-07 17:32:00,
2013-09-07 13:37:00,64.3,59.0,29.70,SE,135,3.0,5.0,85,0.00,,,0.00,Rainwise IP-100,2013-09-07 17:37:00,
2013-09-07 13:42:00,64.4,59.0,29.70,SSE,157,0.0,6.0,83,0.00,,,0.00,Rainwise IP-100,2013-09-07 17:42:00,
2013-09-07 13:48:00,64.5,60.0,29.70,SE,135,0.0,5.0,85,0.00,,,0.00,Rainwise IP-100,2013-09-07 17:48:00,
2013-09-07 13:53:00,64.6,60.0,29.70,SE,135,1.0,3.0,86,0.00,,,0.00,Rainwise IP-100,2013-09-07 17:53:00,
2013-09-07 13:58:00,64.7,60.0,29.70,ESE,112,1.0,5.0,85,0.00,,,0.00,Rainwise IP-100,2013-09-07 17:58:00,
2013-09-07 14:03:00,64.9,60.0,29.70,SE,135,2.0,3.0,86,0.00,,,0.00,Rainwise IP-100,2013-09-07 18:03:00,
2013-09-07 14:08:00,65.1,61.0,29.70,SE,135,1.0,3.0,88,0.00,,,0.00,Rainwise IP-100,2013-09-07 18:08:00,
2013-09-07 14:13:00,65.3,60.0,29.70,SE,135,2.0,3.0,86,0.00,,,0.00,Rainwise IP-100,2013-09-07 18:13:00,
2013-09-07 14:18:00,65.1,59.0,29.70,SE,135,3.0,5.0,82,0.00,,,0.00,Rainwise IP-100,2013-09-07 18:18:00,
2013-09-07 14:23:00,64.9,60.0,29.69,SE,135,1.0,5.0,84,0.00,,,0.00,Rainwise IP-100,2013-09-07 18:23:00,
2013-09-07 14:29:00,64.8,60.0,29.69,SE,135,1.0,5.0,85,0.00,,,0.00,Rainwise IP-100,2013-09-07 18:29:00,
2013-09-07 14:34:00,64.6,60.0,29.69,ESE,112,2.0,4.0,86,0.00,,,0.00,Rainwise IP-100,2013-09-07 18:34:00,
2013-09-07 14:39:00,64.5,60.0,29.69,SSE,157,2.0,4.0,85,0.00,,,0.00,Rainwise IP-100,2013-09-07 18:39:00,
2013-09-07 14:44:00,64.5,60.0,29.69,SE,135,1.0,5.0,85,0.00,,,0.00,Rainwise IP-100,2013-09-07 18:44:00,
2013-09-07 14:49:00,64.6,60.0,29.69,ESE,112,1.0,4.0,86,0.00,,,0.00,Rainwise IP-100,2013-09-07 18:49:00,
2013-09-07 14:54:00,64.6,60.0,29.69,SSE,157,0.0,6.0,86,0.00,,,0.00,Rainwise IP-100,2013-09-07 18:54:00,
2013-09-07 14:59:00,64.8,60.0,29.69,SSE,157,2.0,4.0,85,0.00,,,0.00,Rainwise IP-100,2013-09-07 18:59:00,
2013-09-07 15:05:00,64.9,61.0,29.69,SSE,157,3.0,3.0,88,0.00,,,0.00,Rainwise IP-100,2013-09-07 19:05:00,
2013-09-07 15:10:00,64.9,60.0,29.69,SSE,157,0.0,3.0,85,0.00,,,0.00,Rainwise IP-100,2013-09-07 19:10:00,
2013-09-07 15:15:00,65.0,60.0,29.69,SSE,157,3.0,3.0,85,0.00,,,0.00,Rainwise IP-100,2013-09-07 19:15:00,
2013-09-07 15:20:00,65.3,59.0,29.69,SSE,157,2.0,5.0,83,0.00,,,0.00,Rainwise IP-100,2013-09-07 19:20:00,
2013-09-07 15:25:00,65.3,59.0,29.69,SSE,157,2.0,3.0,83,0.00,,,0.00,Rainwise IP-100,2013-09-07 19:25:00,
2013-09-07 15:30:00,65.3,60.0,29.69,SSE,157,0.0,4.0,85,0.00,,,0.00,Rainwise IP-100,2013-09-07 19:30:00,
2013-09-07 15:35:00,65.2,61.0,29.69,SSE,157,0.0,1.0,88,0.00,,,0.00,Rainwise IP-100,2013-09-07 19:35:00,
2013-09-07 15:40:00,65.0,61.0,29.69,SSE,157,1.0,2.0,87,0.00,,,0.00,Rainwise IP-100,2013-09-07 19:40:00,
2013-09-07 15:46:00,64.9,60.0,29.69,SSE,157,3.0,3.0,86,0.00,,,0.00,Rainwise IP-100,2013-09-07 19:46:00,
2013-09-07 15:51:00,64.8,60.0,29.69,SSE,157,1.0,3.0,85,0.00,,,0.00,Rainwise IP-100,2013-09-07 19:51:00,
2013-09-07 15:56:00,64.7,60.0,29.69,SSE,157,1.0,2.0,87,0.00,,,0.00,Rainwise IP-100,2013-09-07 19:56:00,
2013-09-07 16:01:00,64.4,61.0,29.69,SSE,157,0.0,2.0,88,0.00,,,0.00,Rainwise IP-100,2013-09-07 20:01:00,
2013-09-07 16:06:00,64.3,60.0,29.69,SSE,157,2.0,2.0,89,0.00,,,0.00,Rainwise IP-100,2013-09-07 20:06:00,
2013-09-07 16:11:00,64.3,61.0,29.68,SSE,157,1.0,3.0,90,0.00,,,0.00,Rainwise IP-100,2013-09-07 20:11:00,
2013-09-07 16:16:00,64.3,61.0,29.68,SE,135,2.0,2.0,91,0.00,,,0.00,Rainwise IP-100,2013-09-07 20:16:00,
2013-09-07 16:22:00,64.3,61.0,29.68,SE,135,0.0,3.0,91,0.00,,,0.00,Rainwise IP-100,2013-09-07 20:22:00,
2013-09-07 16:27:00,64.3,62.0,29.68,SE,135,0.0,1.0,93,0.00,,,0.00,Rainwise IP-100,2013-09-07 20:27:00,
2013-09-07 16:32:00,64.2,62.0,29.68,SE,135,0.0,2.0,93,0.00,,,0.00,Rainwise IP-100,2013-09-07 20:32:00,
2013-09-07 16:37:00,64.1,62.0,29.68,SE,135,0.0,0.0,93,0.00,,,0.00,Rainwise IP-100,2013-09-07 20:37:00,
2013-09-07 16:42:00,63.9,62.0,29.67,SE,135,1.0,2.0,94,0.00,,,0.00,Rainwise IP-100,2013-09-07 20:42:00,
2013-09-07 16:47:00,63.8,61.0,29.67,SE,135,1.0,2.0,93,0.00,,,0.00,Rainwise IP-100,2013-09-07 20:47:00,
2013-09-07 16:52:00,63.8,61.0,29.67,SE,135,1.0,2.0,94,0.00,,,0.00,Rainwise IP-100,2013-09-07 20:52:00,
2013-09-07 16:57:00,63.8,61.0,29.67,SE,135,1.0,2.0,94,0.00,,,0.00,Rainwise IP-100,2013-09-07 20:57:00,
2013-09-07 17:03:00,63.7,61.0,29.66,SE,135,1.0,2.0,93,0.00,,,0.00,Rainwise IP-100,2013-09-07 21:03:00,
2013-09-07 17:08:00,63.7,61.0,29.66,SE,135,2.0,3.0,93,0.00,,,0.00,Rainwise IP-100,2013-09-07 21:08:00,
2013-09-07 17:13:00,63.7,61.0,29.66,SE,135,2.0,3.0,93,0.00,,,0.00,Rainwise IP-100,2013-09-07 21:13:00,
2013-09-07 17:18:00,63.6,61.0,29.65,SSE,157,1.0,4.0,92,0.00,,,0.00,Rainwise IP-100,2013-09-07 21:18:00,
2013-09-07 17:23:00,63.6,61.0,29.64,SSE,157,2.0,4.0,93,0.00,,,0.00,Rainwise IP-100,2013-09-07 21:23:00,
2013-09-07 17:28:00,63.6,61.0,29.64,SE,135,3.0,4.0,93,0.00,,,0.00,Rainwise IP-100,2013-09-07 21:28:00,
2013-09-07 17:33:00,63.6,61.0,29.63,South,180,2.0,4.0,93,0.00,,,0.00,Rainwise IP-100,2013-09-07 21:33:00,
2013-09-07 17:39:00,63.7,61.0,29.64,SSE,157,3.0,5.0,92,0.00,,,0.00,Rainwise IP-100,2013-09-07 21:39:00,
2013-09-07 17:44:00,63.7,61.0,29.65,SE,135,2.0,7.0,93,0.00,,,0.00,Rainwise IP-100,2013-09-07 21:44:00,
2013-09-07 17:49:00,63.6,60.0,29.65,SSE,157,1.0,6.0,90,0.00,,,0.00,Rainwise IP-100,2013-09-07 21:49:00,
2013-09-07 17:54:00,63.5,61.0,29.66,SSE,157,0.0,2.0,91,0.00,,,0.00,Rainwise IP-100,2013-09-07 21:54:00,
2013-09-07 17:59:00,63.3,60.0,29.66,SSE,157,1.0,1.0,89,0.00,,,0.00,Rainwise IP-100,2013-09-07 21:59:00,
2013-09-07 18:04:00,63.2,60.0,29.66,ESE,112,2.0,2.0,89,0.00,,,0.00,Rainwise IP-100,2013-09-07 22:04:00,
2013-09-07 18:09:00,63.1,60.0,29.65,East,90,0.0,3.0,89,0.00,,,0.00,Rainwise IP-100,2013-09-07 22:09:00,
2013-09-07 18:14:00,62.9,58.0,29.66,SE,135,0.0,6.0,84,0.00,,,0.00,Rainwise IP-100,2013-09-07 22:14:00,
2013-09-07 18:20:00,62.9,56.0,29.66,SSE,157,2.0,4.0,80,0.00,,,0.00,Rainwise IP-100,2013-09-07 22:20:00,
2013-09-07 18:25:00,62.9,56.0,29.66,SE,135,2.0,4.0,79,0.00,,,0.00,Rainwise IP-100,2013-09-07 22:25:00,
2013-09-07 18:30:00,62.9,57.0,29.65,SE,135,0.0,3.0,81,0.00,,,0.00,Rainwise IP-100,2013-09-07 22:30:00,
2013-09-07 18:35:00,62.8,57.0,29.66,SE,135,0.0,1.0,83,0.00,,,0.00,Rainwise IP-100,2013-09-07 22:35:00,
2013-09-07 18:40:00,62.9,57.0,29.66,SE,135,0.0,1.0,83,0.00,,,0.00,Rainwise IP-100,2013-09-07 22:40:00,
2013-09-07 18:45:00,62.8,57.0,29.66,SE,135,0.0,2.0,83,0.00,,,0.00,Rainwise IP-100,2013-09-07 22:45:00,
2013-09-07 18:50:00,62.7,57.0,29.66,SE,135,3.0,3.0,84,0.00,,,0.00,Rainwise IP-100,2013-09-07 22:50:00,
2013-09-07 18:56:00,62.6,56.0,29.66,SE,135,2.0,3.0,80,0.00,,,0.00,Rainwise IP-100,2013-09-07 22:56:00,
2013-09-07 19:01:00,62.6,56.0,29.66,SSE,157,1.0,4.0,80,0.00,,,0.00,Rainwise IP-100,2013-09-07 23:01:00,
2013-09-07 19:06:00,62.6,57.0,29.66,ESE,112,1.0,4.0,82,0.00,,,0.00,Rainwise IP-100,2013-09-07 23:06:00,
2013-09-07 19:11:00,62.4,57.0,29.65,SSE,157,1.0,3.0,82,0.00,,,0.00,Rainwise IP-100,2013-09-07 23:11:00,
2013-09-07 19:16:00,62.1,56.0,29.66,SSE,157,2.0,3.0,80,0.00,,,0.00,Rainwise IP-100,2013-09-07 23:16:00,
2013-09-07 19:21:00,62.1,56.0,29.66,SSE,157,4.0,4.0,80,0.00,,,0.00,Rainwise IP-100,2013-09-07 23:21:00,
2013-09-07 19:26:00,62.1,56.0,29.66,SSE,157,3.0,5.0,80,0.00,,,0.00,Rainwise IP-100,2013-09-07 23:26:00,
2013-09-07 19:31:00,62.1,56.0,29.66,SSE,157,5.0,6.0,80,0.00,,,0.00,Rainwise IP-100,2013-09-07 23:31:00,
2013-09-07 19:37:00,62.1,56.0,29.65,SE,135,0.0,4.0,83,0.00,,,0.00,Rainwise IP-100,2013-09-07 23:37:00,
2013-09-07 19:42:00,61.9,57.0,29.66,NNE,22,0.0,3.0,84,0.00,,,0.00,Rainwise IP-100,2013-09-07 23:42:00,
2013-09-07 19:47:00,61.8,56.0,29.66,NNE,22,0.0,1.0,84,0.00,,,0.00,Rainwise IP-100,2013-09-07 23:47:00,
2013-09-07 19:52:00,61.7,55.0,29.66,SE,135,1.0,3.0,80,0.00,,,0.00,Rainwise IP-100,2013-09-07 23:52:00,
2013-09-07 19:57:00,61.7,55.0,29.66,South,180,2.0,5.0,80,0.00,,,0.00,Rainwise IP-100,2013-09-07 23:57:00,
2013-09-07 20:02:00,61.7,54.0,29.66,South,180,3.0,4.0,79,0.00,,,0.00,Rainwise IP-100,2013-09-08 00:02:00,
2013-09-07 20:07:00,61.7,55.0,29.65,South,180,0.0,3.0,80,0.00,,,0.00,Rainwise IP-100,2013-09-08 00:07:00,
2013-09-07 20:13:00,61.6,56.0,29.65,South,180,3.0,3.0,84,0.00,,,0.00,Rainwise IP-100,2013-09-08 00:13:00,
2013-09-07 20:18:00,61.5,57.0,29.66,SSE,157,0.0,4.0,85,0.00,,,0.00,Rainwise IP-100,2013-09-08 00:18:00,
2013-09-07 20:23:00,61.4,55.0,29.66,SSE,157,3.0,4.0,80,0.00,,,0.00,Rainwise IP-100,2013-09-08 00:23:00,
2013-09-07 20:28:00,61.4,55.0,29.65,SSE,157,3.0,4.0,80,0.00,,,0.00,Rainwise IP-100,2013-09-08 00:28:00,
2013-09-07 20:33:00,61.4,55.0,29.65,SSE,157,2.0,6.0,80,0.00,,,0.00,Rainwise IP-100,2013-09-08 00:33:00,
2013-09-07 20:38:00,61.3,55.0,29.65,SE,135,3.0,4.0,82,0.00,,,0.00,Rainwise IP-100,2013-09-08 00:38:00,
2013-09-07 20:43:00,61.2,55.0,29.65,SE,135,3.0,4.0,82,0.00,,,0.00,Rainwise IP-100,2013-09-08 00:43:00,
2013-09-07 20:48:00,61.2,56.0,29.65,SSE,157,2.0,4.0,84,0.00,,,0.00,Rainwise IP-100,2013-09-08 00:48:00,
2013-09-07 20:54:00,61.2,56.0,29.65,SSE,157,2.0,4.0,83,0.00,,,0.00,Rainwise IP-100,2013-09-08 00:54:00,
2013-09-07 20:59:00,61.1,55.0,29.65,SSE,157,2.0,5.0,82,0.00,,,0.00,Rainwise IP-100,2013-09-08 00:59:00,
2013-09-07 21:04:00,61.1,56.0,29.65,SSE,157,3.0,3.0,84,0.00,,,0.00,Rainwise IP-100,2013-09-08 01:04:00,
2013-09-07 21:09:00,61.0,56.0,29.65,SSE,157,1.0,3.0,85,0.00,,,0.00,Rainwise IP-100,2013-09-08 01:09:00,
2013-09-07 21:14:00,60.9,56.0,29.65,SSE,157,1.0,4.0,84,0.00,,,0.00,Rainwise IP-100,2013-09-08 01:14:00,
2013-09-07 21:19:00,60.9,56.0,29.64,SSE,157,0.0,3.0,85,0.00,,,0.00,Rainwise IP-100,2013-09-08 01:19:00,
2013-09-07 21:24:00,60.8,56.0,29.64,SSE,157,0.0,3.0,85,0.00,,,0.00,Rainwise IP-100,2013-09-08 01:24:00,
2013-09-07 21:30:00,60.8,56.0,29.64,SSE,157,2.0,3.0,84,0.00,,,0.00,Rainwise IP-100,2013-09-08 01:30:00,
2013-09-07 21:35:00,60.8,56.0,29.64,SSE,157,1.0,5.0,85,0.00,,,0.00,Rainwise IP-100,2013-09-08 01:35:00,
2013-09-07 21:40:00,60.7,56.0,29.64,SSE,157,1.0,4.0,87,0.00,,,0.00,Rainwise IP-100,2013-09-08 01:40:00,
2013-09-07 21:45:00,60.7,56.0,29.64,SSE,157,2.0,5.0,87,0.00,,,0.00,Rainwise IP-100,2013-09-08 01:45:00,
2013-09-07 21:50:00,60.6,56.0,29.64,SSE,157,4.0,5.0,87,0.00,,,0.00,Rainwise IP-100,2013-09-08 01:50:00,
2013-09-07 21:55:00,60.9,57.0,29.64,SSE,157,3.0,5.0,87,0.00,,,0.00,Rainwise IP-100,2013-09-08 01:55:00,
2013-09-07 22:00:00,60.9,57.0,29.64,SE,135,2.0,4.0,88,0.00,,,0.00,Rainwise IP-100,2013-09-08 02:00:00,
2013-09-07 22:05:00,60.8,57.0,29.63,West,270,2.0,5.0,88,0.00,,,0.00,Rainwise IP-100,2013-09-08 02:05:00,
2013-09-07 22:11:00,60.8,57.0,29.63,SSE,157,1.0,6.0,89,0.00,,,0.00,Rainwise IP-100,2013-09-08 02:11:00,
2013-09-07 22:16:00,60.8,57.0,29.63,SSE,157,3.0,6.0,88,0.00,,,0.00,Rainwise IP-100,2013-09-08 02:16:00,
2013-09-07 22:21:00,60.7,56.0,29.63,SSE,157,1.0,4.0,87,0.00,,,0.00,Rainwise IP-100,2013-09-08 02:21:00,
2013-09-07 22:26:00,60.7,56.0,29.63,SSE,157,2.0,5.0,87,0.00,,,0.00,Rainwise IP-100,2013-09-08 02:26:00,
2013-09-07 22:31:00,60.7,56.0,29.63,SSE,157,1.0,6.0,87,0.00,,,0.00,Rainwise IP-100,2013-09-08 02:31:00,
2013-09-07 22:36:00,60.5,57.0,29.62,SE,135,1.0,6.0,90,0.00,,,0.00,Rainwise IP-100,2013-09-08 02:36:00,
2013-09-07 22:41:00,60.4,57.0,29.62,SSE,157,1.0,5.0,88,0.00,,,0.00,Rainwise IP-100,2013-09-08 02:41:00,
2013-09-07 22:47:00,60.4,57.0,29.62,SSE,157,0.0,4.0,89,0.00,,,0.00,Rainwise IP-100,2013-09-08 02:47:00,
2013-09-07 22:52:00,60.4,57.0,29.62,East,90,0.0,4.0,90,0.00,,,0.00,Rainwise IP-100,2013-09-08 02:52:00,
2013-09-07 22:57:00,60.3,57.0,29.62,SE,135,0.0,3.0,91,0.00,,,0.00,Rainwise IP-100,2013-09-08 02:57:00,
2013-09-07 23:02:00,60.3,57.0,29.62,SSE,157,3.0,3.0,91,0.00,,,0.00,Rainwise IP-100,2013-09-08 03:02:00,
2013-09-07 23:07:00,60.2,57.0,29.62,SSE,157,3.0,6.0,90,0.00,,,0.00,Rainwise IP-100,2013-09-08 03:07:00,
2013-09-07 23:12:00,60.3,57.0,29.62,SSE,157,3.0,5.0,90,0.00,,,0.00,Rainwise IP-100,2013-09-08 03:12:00,
2013-09-07 23:17:00,60.3,57.0,29.62,SSE,157,1.0,4.0,91,0.00,,,0.00,Rainwise IP-100,2013-09-08 03:17:00,
2013-09-07 23:22:00,60.2,57.0,29.62,SE,135,3.0,3.0,90,0.00,,,0.00,Rainwise IP-100,2013-09-08 03:22:00,
2013-09-07 23:28:00,60.2,57.0,29.62,SE,135,2.0,4.0,92,0.00,,,0.00,Rainwise IP-100,2013-09-08 03:28:00,
2013-09-07 23:33:00,60.1,56.0,29.61,SE,135,3.0,4.0,89,0.00,,,0.00,Rainwise IP-100,2013-09-08 03:33:00,
2013-09-07 23:38:00,60.2,56.0,29.61,SE,135,2.0,5.0,89,0.00,,,0.00,Rainwise IP-100,2013-09-08 03:38:00,
2013-09-07 23:43:00,60.2,57.0,29.60,SSE,157,1.0,5.0,90,0.00,,,0.00,Rainwise IP-100,2013-09-08 03:43:00,
2013-09-07 23:48:00,60.1,57.0,29.61,SSE,157,2.0,4.0,90,0.00,,,0.00,Rainwise IP-100,2013-09-08 03:48:00,
2013-09-07 23:53:00,60.1,57.0,29.61,SSE,157,3.0,4.0,90,0.00,,,0.00,Rainwise IP-100,2013-09-08 03:53:00,
2013-09-07 23:58:00,60.1,57.0,29.61,SSE,157,0.0,4.0,91,0.00,,,0.00,Rainwise IP-100,2013-09-08 03:58:00,